NWS Home NWS Lubbock West Texas Mesonet North Sector Latest Conditions as of 0757 PM, Wed Jul 17, 2019

Latest   N   C   S   Daily Sum   3hrΔ   24hrΔ   Soil Data 
Site Map   24hr Precip   72hr Precip   Google Plot


Station Time of Last Temp Dew Pt. RH Wind Direction Wind Speed Wind Gust Max Wind Max Temp Min Temp Max RH Min RH Altimeter 1HR Rain Today's Rain Solar Rad
Adrian 6WSW  07:50 PM 92 56 30% S2226 35 mph 189° @ 0303 PM 99 70 61 24 29.95" 0 0.00 170
Aiken 3WSW  07:50 PM 91 61 36% S1619 29 mph 198° @ 0221 PM 96 73 72 28 29.96" 0 0.00 154
Amarillo 15NNW   07:50 PM 95 56 27% S1419 34 mph 207° @ 0848 AM 100 77 58 25 29.88" 0 0.00 170
Amarillo 7SSE  07:50 PM 92 54 28% S1519 33 mph 216° @ 0910 AM 98 72 62 24 29.94" 0 0.00 158
Amarillo 9NNE  07:50 PM 93 57 31% S1823 45 mph 176° @ 0200 AM 97 70 83 26 29.89" 0 0.63 137
Amherst 1NE  07:50 PM 90 57 34% SE1317 25 mph 182° @ 0245 PM 94 69 76 28 29.95" 0 0.00 88
Bootleg 11WNW  07:50 PM 90 56 31% S2024 33 mph 201° @ 0931 AM 96 68 65 26 29.99" 0 0.00 158
Boys Ranch 1WSW  07:50 PM 95 58 29% S1318 30 mph 196° @ 0139 PM 100 72 66 26 29.87" 0 0.00 165
Canadian 6E  07:50 PM 93 65 39% S1721 32 mph 179° @ 0345 PM 99 74 76 29 29.84" 0 0.00 147
Caprock Canyons State Park  07:50 PM 93 59 31% S1521 34 mph 220° @ 0920 AM 100 77 61 21 29.91" 0 0.00 148
Childress 2NNE  07:50 PM 95 58 31% S1724 29 mph 154° @ 0725 PM 100 77 69 28 29.86" 0 0.00 146
Clarendon 2WSW  07:50 PM 95 57 30% S1925 33 mph 162° @ 0405 PM 100 75 66 20 29.90" 0 0.00 90
Claude 12SW  07:50 PM 94 55 27% S1115 29 mph 215° @ 0708 AM 99 76 61 22 29.93" 0 0.00 173
Dimmitt 2NE  07:50 PM 92 55 29% S1723 34 mph 181° @ 0120 PM 97 70 68 24 29.96" 0 0.00 173
Dozier 3W  07:50 PM 96 64 36% S1419 32 mph 175° @ 0421 PM 102 74 80 27 29.88" 0 0.00 144
Earth 9WSW  07:50 PM 91 54 29% SE1416 28 mph 154° @ 0112 PM 97 67 74 25 29.96" 0 0.00 43
Endee NM 2SW  07:50 PM 94 57 29% S2124 35 mph 193° @ 0136 PM 100 68 85 23 29.91" 0 0.00 171
Estelline 3SSE  07:50 PM 96 62 33% SE1720 28 mph 199° @ 0125 PM 102 74 76 28 29.85" 0 0.00 141
Floydada 2NNE  07:50 PM 92 56 31% S1522 28 mph 191° @ 0300 PM 96 69 79 27 29.95" 0 0.00 152
Friona 2NE  07:50 PM 92 53 28% S2025 31 mph 177° @ 0330 PM 96 69 70 26 29.96" 0 0.00 182
Fritch 1WNW  07:50 PM 95 55 26% S2024 36 mph 219° @ 1028 AM 100 76 60 24 29.88" 0 0.00 140
Goodlett 3W  07:50 PM 96 61 32% SE2025 32 mph 157° @ 0625 PM 102 77 69 28 29.85" 0 0.00 147
Goodnight  07:50 PM 94 60 32% S1721 30 mph 174° @ 0556 PM 101 73 89 21 29.93" 0 0.00 160
Happy 1E  07:50 PM 93 55 28% S1620 34 mph 209° @ 0208 PM 99 70 68 23 29.96" 0 0.00 170
Hart 3N  07:50 PM 90 56 32% S1218 28 mph 204° @ 0920 AM 96 68 83 23 29.95" 0 0.00 177
Hereford 2NW  07:50 PM 92 54 29% S1621 29 mph 204° @ 0120 PM 96 72 61 26 29.94" 0 0.00 166
Lake McClellan 2NW  07:50 PM 91 61 38% SE1418 31 mph 192° @ 0132 AM 96 72 73 27 29.92" 0 0.00 123
Lesley 2S  07:50 PM 97 63 33% S1922 32 mph 185° @ 0457 PM 103 77 65 23 29.85" 0 0.00 140
McLean 1E  07:50 PM 92 62 38% S1731 31 mph 163° @ 0750 PM 95 74 74 29 29.89" 0 0.00 109
Memphis 1NE  07:50 PM 95 59 32% SE1724 27 mph 170° @ 0330 PM 99 75 75 28 29.86" 0 0.00 123
Muleshoe 2SSW  07:50 PM 89 53 31% SE1316 25 mph 169° @ 0350 PM 96 69 71 25 29.95" 0 0.00 44
Northfield 1S  07:50 PM 95 58 30% S1421 31 mph 166° @ 0315 PM 100 76 66 26 29.87" 0 0.00 144
Odell 4ENE  07:50 PM 94 65 39% S2025 28 mph 168° @ 0330 PM 100 79 70 32 29.87" 0 0.00 115
Olton 6S  07:50 PM 91 53 28% SE1519 28 mph 199° @ 0300 PM 96 68 77 23 29.95" 0 0.00 151
Palo Duro 4E (JA Ranch)  07:50 PM 97 59 28% S1315 41 mph 218° @ 0259 PM 104 73 65 21 29.88" 0 0.00 135
Palo Duro Canyon SP Floor  07:50 PM 97 58 27% S811 27 mph 145° @ 0318 PM 102 79 58 20 29.88" 0 0.00 162
Palo Duro Canyon State Park Rim  07:50 PM 94 55 27% S1216 30 mph 194° @ 1045 AM 100 76 59 22 29.94" 0 0.00 154
Palo Duro Reservoir 1NW   07:50 PM 95 58 29% S2327 35 mph 181° @ 0405 PM 101 70 66 25 29.85" 0 0.00 138
Pampa 2E  07:50 PM 93 58 33% S1418 32 mph 168° @ 0550 PM 98 70 76 25 29.91" 0 0.00 181
Panhandle 1SSW  07:50 PM 90 58 35% S1517 29 mph 211° @ 1027 AM 96 69 85 29 29.94" 0 0.00 168
Plainview 1S  07:50 PM 92 56 30% S1217 27 mph 195° @ 0205 PM 96 72 77 27 29.94" 0 0.00 149
Romero 11 SSW  07:50 PM 96 56 26% S2224 36 mph 190° @ 0519 PM 101 68 82 23 29.89" 0 0.10 181
Silverton 7ESE  07:50 PM 92 57 32% S1521 31 mph 214° @ 0900 AM 98 76 63 22 29.94" 0 0.00 146
South Plains 3ENE  07:50 PM 92 61 36% S1419 31 mph 178° @ 0346 PM 98 72 74 27 29.94" 0 0.00 134
Stinnett 1NNW  07:50 PM 94 55 27% S1821 45 mph 231° @ 0217 AM 99 73 68 27 29.90" 0 0.00 166
Tulia 2ENE  07:50 PM 92 56 31% S1622 30 mph 213° @ 0910 AM 97 74 66 24 29.95" 0 0.00 158
Turkey 2WSW  07:50 PM 95 61 34% SE1823 31 mph 166° @ 0430 PM 100 79 63 26 29.88" 0 0.00 120
Umbarger 3NNE  07:50 PM 92 55 28% S1921 31 mph 181° @ 0103 PM 98 70 71 25 29.95" 0 0.00 159
Vigo Park  07:50 PM 93 57 30% S1620 32 mph 200° @ 1227 PM 99 72 71 23 29.95" 0 0.00 156

West Texas Mesonet Home   Site Map/Menu  NWS Lubbock Soil Data  Daily Summary Page  24hr Precip  72hr Precip  Google Plot